If you wish to contribute or participate in the discussions about articles you are invited to join SKYbrary as a registered user

 Actions

Luxeuil-Saint-Sauveur (BA 116) Air Base

From SKYbrary Wiki

LFSX
Airport
ICAO: LFSX
Summary
Name Luxeuil-Saint-Sauveur (BA 116) Air Base
Region Europe
Territory France FR.gif
Location , Franche-Comte
Serving Luxeuil
Elevation 278.282 m
913 ft
913 ft278.282 m
Type medium airport
Coordinates 47° 46' 59.27" N, 6° 21' 50.60" E
Runways
Designator Length Width Surface ROPS
4/22 2315 m7,595.144 ft
36 m118.11 ft
ASP /
11/29 2433 m7,982.283 ft
45 m147.638 ft
ASP /


METAR
Observation LFSX 110330Z AUTO 09005KT CAVOK M00/M01 Q1017
Station Luxeuil
Date/Time 11 December 2019 03:30:00
Wind direction 90°
Wind speed 05 kts
Lowest cloud amount clouds and visibility OK
Temperature
Dew point
Humidity 92%
QNH 1017 hPa
Weather condition n/a